Weather reports worldwide

Advertisment
La Coruna/Alvedro, Spain (8002): temperature & dewpoint: 29.06.2020 16:00:00 - 05.07.2020 16:00:00 (CEST)La Coruna/Alvedro, Spain (8002): wind speed: 29.06.2020 16:00:00 - 05.07.2020 16:00:00 (CEST)La Coruna/Alvedro, Spain (8002): wind direction: 29.06.2020 16:00:00 - 05.07.2020 16:00:00 (CEST)La Coruna/Alvedro, Spain (8002): reduced air pressure: 29.06.2020 16:00:00 - 05.07.2020 16:00:00 (CEST)La Coruna/Alvedro, Spain (8002): visibility: 29.06.2020 16:00:00 - 05.07.2020 16:00:00 (CEST)
Date & Time tt [°C] td [°C] ff [km/h] ff [kn] dd ppp [hPa] vv [km]
05.07.2020 16:00:00 18,6 16,4 18 10 N 1023,8 10
05.07.2020 15:00:00 19,2 16,6 13 7 N 1024,0 10
05.07.2020 14:00:00 18,7 16,6 13 7 N 1024,2 30
05.07.2020 13:00:00 18,8 16,6 13 7 N 1024,0 30
05.07.2020 12:00:00 18,0 16,7 9 5 N 1023,9 11
05.07.2020 11:00:00 18,3 16,6 8 4 N 1023,9 30
05.07.2020 10:00:00 17,5 16,9 8 4 N 1023,9 3,5
05.07.2020 09:00:00 16,9 16,6 8 4 N 1023,8 2,3
05.07.2020 08:00:00 16,8 16,5 5 3 N 1023,5 2,6
05.07.2020 07:00:00 16,8 16,6 4 2 NNE 1023,4 7
05.07.2020 06:00:00 16,8 16,5 8 4 NNE 1023,6 2,8
05.07.2020 05:00:00 17,0 16,7 8 4 N 1023,9 0,5
05.07.2020 04:00:00 17,6 17,0 4 2 - 1024,0 7
05.07.2020 03:00:00 17,6 16,8 4 2 - 1024,3 10
05.07.2020 02:00:00 17,8 16,8 5 3 NNE 1024,8 10
05.07.2020 01:00:00 18,2 16,9 2 1 - 1024,9 10
05.07.2020 00:00:00 18,3 17,0 4 2 NNE 1025,0 30
04.07.2020 23:00:00 18,2 16,9 5 3 NNE 1024,8 10
04.07.2020 22:00:00 18,6 16,9 8 4 NNE 1024,8 30
04.07.2020 21:00:00 19,3 16,8 9 5 N 1024,7 10
04.07.2020 20:00:00 19,9 16,5 11 6 N 1024,6 30
04.07.2020 19:00:00 21,1 16,8 9 5 NNE 1024,3 10
04.07.2020 18:00:00 20,8 16,2 13 7 NNE 1024,6 10
04.07.2020 17:00:00 21,8 16,5 16 9 NNE 1024,7 10
04.07.2020 16:00:00 22,2 16,6 15 8 NNE 1024,6 10
04.07.2020 15:00:00 21,2 15,3 16 9 NNE 1024,8 30
04.07.2020 14:00:00 23,1 15,6 9 5 NE 1024,6 10
04.07.2020 13:00:00 22,2 14,6 8 4 NNE 1024,9 10
04.07.2020 12:00:00 21,4 13,9 4 2 SE 1024,9 30
04.07.2020 11:00:00 19,3 12,6 5 3 NE 1025,5 10
04.07.2020 10:00:00 18,2 12,1 2 1 - 1025,6 10
04.07.2020 09:00:00 14,3 11,1 2 1 SE 1025,6 30
04.07.2020 08:00:00 12,0 10,1 4 2 - 1025,4 10
04.07.2020 07:00:00 10,4 9,6 8 4 SSE 1025,0 30
04.07.2020 06:00:00 10,5 9,7 9 5 SSE 1024,9 30
04.07.2020 05:00:00 11,0 10,1 9 5 S 1025,0 30
04.07.2020 04:00:00 11,4 10,3 5 3 S 1025,5 10
04.07.2020 03:00:00 11,8 10,4 8 4 S 1025,9 10
04.07.2020 02:00:00 13,1 10,5 0 0 N 1026,0 30
04.07.2020 01:00:00 14,0 10,8 0 0 N 1026,1 30
04.07.2020 00:00:00 14,5 10,7 2 1 - 1026,1 10
03.07.2020 23:00:00 15,6 10,8 8 4 N 1025,7 10
03.07.2020 22:00:00 16,3 10,8 9 5 N 1025,3 10
03.07.2020 21:00:00 17,2 10,6 13 7 N 1025,3 30
03.07.2020 20:00:00 18,0 11,1 13 7 N 1025,1 10
03.07.2020 19:00:00 18,3 11,3 15 8 N 1025,0 30
03.07.2020 18:00:00 18,6 11,8 15 8 NNE 1024,9 10
03.07.2020 17:00:00 18,6 11,5 21 11 NNW 1025,3 30
03.07.2020 16:00:00 18,6 12,1 16 9 N 1025,4 30
03.07.2020 15:00:00 18,6 12,2 16 9 NNE 1025,3 10
03.07.2020 14:00:00 18,4 12,0 15 8 NNE 1025,4 30
03.07.2020 13:00:00 18,5 12,2 11 6 - 1025,6 10
03.07.2020 12:00:00 17,5 11,0 8 4 N 1025,5 10
03.07.2020 11:00:00 16,5 11,5 5 3 NE 1025,4 30
03.07.2020 10:00:00 15,7 10,9 0 0 N 1025,5 10
03.07.2020 09:00:00 12,5 9,9 4 2 - 1025,5 10
03.07.2020 08:00:00 9,9 8,8 5 3 S 1025,5 10
03.07.2020 07:00:00 8,8 8,2 8 4 S 1025,4 10
03.07.2020 06:00:00 9,3 8,7 8 4 S 1025,1 25
03.07.2020 05:00:00 10,1 9,3 8 4 S 1025,0 10
03.07.2020 04:00:00 10,5 9,4 8 4 S 1025,2 10
03.07.2020 03:00:00 11,3 9,6 5 3 S 1025,4 10
03.07.2020 02:00:00 13,0 9,6 5 3 SSW 1025,5 30
03.07.2020 01:00:00 14,4 9,8 2 1 - 1025,5 10
03.07.2020 00:00:00 15,3 9,4 9 5 N 1025,5 30
02.07.2020 23:00:00 15,6 9,3 8 4 N 1024,9 30
02.07.2020 22:00:00 16,0 9,5 11 6 N 1024,6 30
02.07.2020 21:00:00 16,9 8,6 13 7 N 1024,1 10
02.07.2020 20:00:00 17,6 10,2 11 6 N 1023,9 10
02.07.2020 19:00:00 16,8 11,3 15 8 N 1023,8 30
02.07.2020 18:00:00 17,7 10,1 15 8 N 1023,7 30
02.07.2020 17:00:00 18,4 8,6 13 7 N 1023,6 10
02.07.2020 16:00:00 19,0 9,6 16 9 NE 1023,4 10
02.07.2020 15:00:00 18,5 8,5 15 8 N 1023,2 30
02.07.2020 14:00:00 17,5 10,7 15 8 N 1023,1 10
02.07.2020 13:00:00 17,2 12,2 11 6 NNE 1022,7 10
02.07.2020 12:00:00 16,0 12,2 9 5 NNW 1022,2 10
02.07.2020 11:00:00 14,9 12,9 11 6 NW 1021,8 10
02.07.2020 10:00:00 14,6 13,1 4 2 NNW 1021,2 8
02.07.2020 09:00:00 15,1 13,1 5 3 SSE 1020,4 10
02.07.2020 08:00:00 14,5 12,9 5 3 S 1020,0 30
02.07.2020 07:00:00 14,6 13,0 0 0 N 1019,5 10
02.07.2020 06:00:00 14,5 12,8 4 2 NW 1019,3 30
02.07.2020 05:00:00 14,5 12,9 9 5 NW 1019,2 9
02.07.2020 04:00:00 14,5 12,0 5 3 S 1019,4 10
02.07.2020 03:00:00 14,5 11,6 2 1 - 1019,5 10
02.07.2020 02:00:00 15,1 12,8 5 3 SSW 1019,5 30
02.07.2020 01:00:00 14,9 12,6 4 2 - 1019,6 10
02.07.2020 00:00:00 15,7 12,8 2 1 - 1019,5 10
01.07.2020 23:00:00 15,9 13,0 5 3 WNW 1019,1 30
01.07.2020 22:00:00 16,5 13,2 8 4 NNW 1018,8 10
01.07.2020 21:00:00 17,1 13,2 11 6 N 1018,4 10
01.07.2020 20:00:00 17,6 12,7 13 7 NNW 1018,3 10
01.07.2020 19:00:00 18,3 12,7 16 9 NNW 1018,0 10
01.07.2020 18:00:00 18,6 13,2 18 10 NNW 1018,0 10
01.07.2020 17:00:00 18,7 12,6 18 10 NW 1018,1 30
01.07.2020 16:00:00 19,4 12,9 18 10 NNW 1017,7 10
01.07.2020 15:00:00 19,7 14,3 21 11 NW 1017,6 30
01.07.2020 14:00:00 18,8 12,9 16 9 NNW 1017,4 10
01.07.2020 13:00:00 18,9 13,8 18 10 NW 1017,1 10
01.07.2020 12:00:00 19,5 13,9 15 8 WNW 1016,6 29
01.07.2020 11:00:00 17,5 14,6 13 7 WNW 1016,6 23
01.07.2020 10:00:00 16,8 15,0 9 5 WNW 1016,1 20
01.07.2020 09:00:00 15,9 15,1 16 9 NW 1015,7 2,8
01.07.2020 08:00:00 16,5 15,5 11 6 W 1015,2 6
01.07.2020 07:00:00 16,2 15,4 11 6 NW 1014,7 9
01.07.2020 06:00:00 17,3 16,7 4 2 - 1014,5 9
01.07.2020 05:00:00 17,5 16,2 0 0 N 1014,4 6
01.07.2020 04:00:00 17,2 15,5 4 2 S 1014,5 6
01.07.2020 03:00:00 16,9 15,8 9 5 SSE 1014,6 10
01.07.2020 02:00:00 17,3 15,8 2 1 - 1015,0 10
01.07.2020 01:00:00 17,7 16,2 4 2 NW 1015,1 30
01.07.2020 00:00:00 18,0 16,5 5 3 NNW 1015,1 10
30.06.2020 23:00:00 18,4 16,9 0 0 N 1014,9 10
30.06.2020 22:00:00 19,2 17,2 4 2 NE 1014,8 10
30.06.2020 21:00:00 20,0 17,2 9 5 NNE 1014,4 30
30.06.2020 20:00:00 21,2 17,3 11 6 NE 1013,9 10
30.06.2020 19:00:00 20,6 17,0 13 7 NNE 1014,2 10
30.06.2020 18:00:00 20,7 17,2 16 9 NNW 1014,4 30
30.06.2020 17:00:00 20,6 17,3 16 9 NNW 1014,4 10
30.06.2020 16:00:00 21,8 17,3 16 9 N 1014,3 10
30.06.2020 15:00:00 22,0 17,3 13 7 NNE 1014,6 30
30.06.2020 14:00:00 21,6 16,7 13 7 NNE 1014,7 29
30.06.2020 13:00:00 22,1 16,5 9 5 NNE 1015,0 10
30.06.2020 12:00:00 21,3 16,4 8 4 NNE 1015,4 28
30.06.2020 11:00:00 19,3 15,6 9 5 N 1015,9 30
30.06.2020 10:00:00 18,3 14,0 2 1 - 1016,4 10
30.06.2020 09:00:00 16,2 13,3 2 1 S 1016,4 29
30.06.2020 08:00:00 13,7 12,3 4 2 S 1016,7 10
30.06.2020 07:00:00 13,2 12,1 8 4 S 1016,7 22
30.06.2020 06:00:00 13,2 12,0 5 3 S 1016,6 30
30.06.2020 05:00:00 13,6 12,0 9 5 S 1017,0 10
30.06.2020 04:00:00 14,3 12,3 2 1 S 1017,5 10
30.06.2020 03:00:00 15,0 12,7 2 1 SE 1018,2 30
30.06.2020 02:00:00 16,3 12,5 0 0 N 1019,0 10
30.06.2020 01:00:00 16,4 12,6 4 2 - 1019,4 10
30.06.2020 00:00:00 16,7 12,4 5 3 N 1019,8 10
29.06.2020 23:00:00 16,7 12,8 8 4 N 1019,8 10
29.06.2020 22:00:00 17,0 12,3 8 4 N 1019,7 30
29.06.2020 21:00:00 17,3 12,7 11 6 NNE 1019,9 10
29.06.2020 20:00:00 18,4 13,6 13 7 NNE 1019,9 30
29.06.2020 19:00:00 18,6 12,9 13 7 NNE 1020,3 10
29.06.2020 18:00:00 19,0 13,0 15 8 N 1020,6 10
29.06.2020 17:00:00 19,2 13,4 16 9 N 1020,8 10
29.06.2020 16:00:00 18,9 13,6 13 7 NNE 1021,1 10

tt = temperature
td = dewpoint
ff = wind speed
dd = wind direction
ppp = reduced air pressure
vv = visibility

Next stations